Time,TemperatureF,DewpointF,PressureIn,WindDirection,WindDirectionDegrees,WindSpeedMPH,WindSpeedGustMPH,Humidity,HourlyPrecipIn,Conditions,Clouds,dailyrainin,SolarRadiationWatts/m^2,SoftwareType,DateUTC
2015-02-28 00:23:00,31.0,21.0,-100.00,North,-9999,0.0,7.0,66,0.00,,,0.00,0.000000,,2015-02-28 06:23:00,
2015-02-28 00:33:00,31.0,21.0,-100.00,North,-9999,0.0,7.0,66,0.00,,,0.00,0.000000,,2015-02-28 06:33:00,
2015-02-28 00:42:00,31.0,21.0,-100.00,North,-9999,0.0,7.0,66,0.00,,,0.00,0.000000,,2015-02-28 06:42:00,
2015-02-28 00:53:00,31.0,21.0,-100.00,North,-9999,0.0,7.0,66,0.00,,,0.00,0.000000,,2015-02-28 06:53:00,
2015-02-28 01:23:00,30.0,20.0,-100.00,ENE,69,1.0,6.0,67,0.00,,,0.00,0.000000,,2015-02-28 07:23:00,
2015-02-28 01:33:00,30.0,20.0,-100.00,ENE,69,1.0,6.0,67,0.00,,,0.00,0.000000,,2015-02-28 07:33:00,
2015-02-28 01:43:00,30.0,20.0,-100.00,ENE,69,1.0,6.0,67,0.00,,,0.00,0.000000,,2015-02-28 07:43:00,
2015-02-28 01:52:00,30.0,20.0,-100.00,ENE,69,1.0,6.0,67,0.00,,,0.00,0.000000,,2015-02-28 07:52:00,
2015-02-28 02:22:00,30.0,20.0,-100.00,ENE,69,1.0,9.0,67,0.00,,,0.00,0.000000,,2015-02-28 08:22:00,
2015-02-28 02:32:00,30.0,20.0,-100.00,ENE,69,1.0,9.0,67,0.00,,,0.00,0.000000,,2015-02-28 08:32:00,
2015-02-28 02:42:00,30.0,20.0,-100.00,ENE,69,1.0,9.0,67,0.00,,,0.00,0.000000,,2015-02-28 08:42:00,
2015-02-28 02:53:00,30.0,20.0,-100.00,ENE,69,1.0,9.0,67,0.00,,,0.00,0.000000,,2015-02-28 08:53:00,
2015-02-28 03:22:00,30.0,20.0,-100.00,ENE,65,1.0,6.0,67,0.00,,,0.00,0.000000,,2015-02-28 09:22:00,
2015-02-28 03:32:00,30.0,20.0,-100.00,ENE,65,1.0,6.0,67,0.00,,,0.00,0.000000,,2015-02-28 09:32:00,
2015-02-28 03:43:00,30.0,20.0,-100.00,ENE,65,1.0,6.0,67,0.00,,,0.00,0.000000,,2015-02-28 09:43:00,
2015-02-28 03:53:00,30.0,20.0,-100.00,ENE,65,1.0,6.0,67,0.00,,,0.00,0.000000,,2015-02-28 09:53:00,
2015-02-28 04:23:00,30.0,21.0,-100.00,ENE,61,1.0,9.0,69,0.00,,,0.00,0.000000,,2015-02-28 10:23:00,
2015-02-28 04:33:00,30.0,21.0,-100.00,ENE,61,1.0,9.0,69,0.00,,,0.00,0.000000,,2015-02-28 10:33:00,
2015-02-28 04:43:00,30.0,21.0,-100.00,ENE,61,1.0,9.0,69,0.00,,,0.00,0.000000,,2015-02-28 10:43:00,
2015-02-28 04:53:00,30.0,21.0,-100.00,ENE,61,1.0,9.0,69,0.00,,,0.00,0.000000,,2015-02-28 10:53:00,
2015-02-28 05:23:00,30.0,21.0,-100.00,ENE,60,1.0,10.0,70,0.00,,,0.00,0.000000,,2015-02-28 11:23:00,
2015-02-28 05:32:00,30.0,21.0,-100.00,ENE,60,1.0,10.0,70,0.00,,,0.00,0.000000,,2015-02-28 11:32:00,
2015-02-28 05:43:00,30.0,21.0,-100.00,ENE,60,1.0,10.0,70,0.00,,,0.00,0.000000,,2015-02-28 11:43:00,
2015-02-28 05:53:00,30.0,21.0,-100.00,ENE,60,1.0,10.0,70,0.00,,,0.00,0.000000,,2015-02-28 11:53:00,
2015-02-28 06:23:00,29.0,20.0,-100.00,NE,54,2.0,10.0,70,0.00,,,0.00,0.000000,,2015-02-28 12:23:00,
2015-02-28 06:32:00,29.0,20.0,-100.00,NE,54,2.0,10.0,70,0.00,,,0.00,0.000000,,2015-02-28 12:32:00,
2015-02-28 06:42:00,29.0,20.0,-100.00,NE,54,2.0,10.0,70,0.00,,,0.00,0.000000,,2015-02-28 12:42:00,
2015-02-28 06:53:00,29.0,20.0,-100.00,NE,54,2.0,10.0,70,0.00,,,0.00,0.000000,,2015-02-28 12:53:00,
2015-02-28 07:23:00,29.0,21.0,-100.00,ENE,58,1.0,10.0,73,0.00,,,0.00,4.000000,,2015-02-28 13:23:00,
2015-02-28 07:32:00,29.0,21.0,-100.00,ENE,58,1.0,10.0,73,0.00,,,0.00,4.000000,,2015-02-28 13:32:00,
2015-02-28 07:43:00,29.0,21.0,-100.00,ENE,58,1.0,10.0,73,0.00,,,0.00,4.000000,,2015-02-28 13:43:00,
2015-02-28 07:52:00,29.0,21.0,-100.00,ENE,58,1.0,10.0,73,0.00,,,0.00,4.000000,,2015-02-28 13:52:00,
2015-02-28 08:22:00,33.0,24.0,-100.00,ENE,77,1.0,15.0,68,0.00,,,0.00,121.000000,,2015-02-28 14:22:00,
2015-02-28 08:32:00,33.0,24.0,-100.00,ENE,77,1.0,15.0,68,0.00,,,0.00,121.000000,,2015-02-28 14:32:00,
2015-02-28 08:42:00,33.0,24.0,-100.00,ENE,77,1.0,15.0,68,0.00,,,0.00,121.000000,,2015-02-28 14:42:00,
2015-02-28 08:52:00,33.0,24.0,-100.00,ENE,77,1.0,15.0,68,0.00,,,0.00,121.000000,,2015-02-28 14:52:00,